RYR535 LFPG-EHAM

Flight info

Callsign RYR535
Flight time N/A
Altitude 28000
Route URMO N874 VEKIN N873 HELEN
Aircraft B738/M-SDFGRWY/C

Departure

Time 2026-05-08 20:14
Airport Charles de Gaulle International Airport (LFPG)

Arrival

Time N/A
Airport Amsterdam Airport Schiphol (EHAM)
Time Latitude Longitude Altitude Speed Heading
2026-05-08 19:26 49.00715 2.56739 365 ft 0 kts 355°
2026-05-08 19:50 49.00711 2.56739 365 ft 2 kts 355°
2026-05-08 19:50 49.00696 2.56741 365 ft 2 kts 355°
2026-05-08 19:51 49.00687 2.56743 365 ft 2 kts 355°
2026-05-08 19:51 49.00673 2.56752 365 ft 2 kts 315°
2026-05-08 19:51 49.00664 2.56771 366 ft 2 kts 285°
2026-05-08 19:51 49.00663 2.56785 366 ft 1 kts 266°
2026-05-08 19:52 49.00664 2.56795 366 ft 0 kts 265°
2026-05-08 19:55 49.00661 2.56744 365 ft 9 kts 265°
2026-05-08 19:56 49.00656 2.56628 363 ft 11 kts 267°
2026-05-08 19:56 49.00653 2.56538 361 ft 4 kts 267°
2026-05-08 19:56 49.00650 2.56485 359 ft 6 kts 265°
2026-05-08 19:56 49.00645 2.56404 356 ft 9 kts 265°
2026-05-08 19:57 49.00639 2.56293 353 ft 11 kts 266°
2026-05-08 19:57 49.00634 2.56184 351 ft 5 kts 266°
2026-05-08 19:57 49.00633 2.56172 350 ft 0 kts 264°
2026-05-08 19:57 49.00629 2.56122 349 ft 9 kts 263°
2026-05-08 19:58 49.00602 2.55988 347 ft 16 kts 249°
2026-05-08 19:58 49.00565 2.55805 341 ft 15 kts 268°
2026-05-08 19:58 49.00559 2.55683 339 ft 12 kts 264°
2026-05-08 19:58 49.00555 2.55617 337 ft 1 kts 265°
2026-05-08 19:59 49.00554 2.55613 337 ft 0 kts 265°
2026-05-08 19:59 49.00554 2.55611 337 ft 0 kts 265°
2026-05-08 20:00 49.00551 2.55559 336 ft 9 kts 265°
2026-05-08 20:00 49.00550 2.55458 335 ft 6 kts 285°
2026-05-08 20:00 49.00572 2.55422 335 ft 5 kts 338°
2026-05-08 20:00 49.00614 2.55403 336 ft 7 kts 343°
2026-05-08 20:01 49.00677 2.55375 337 ft 12 kts 343°
2026-05-08 20:01 49.00771 2.55330 339 ft 10 kts 343°
2026-05-08 20:01 49.00835 2.55301 341 ft 1 kts 344°
2026-05-08 20:01 49.00836 2.55301 341 ft 0 kts 344°
2026-05-08 20:02 49.00843 2.55298 341 ft 2 kts 344°
2026-05-08 20:02 49.00878 2.55283 342 ft 7 kts 345°
2026-05-08 20:03 49.00943 2.55255 345 ft 11 kts 345°
2026-05-08 20:03 49.01031 2.55216 348 ft 12 kts 343°
2026-05-08 20:03 49.01115 2.55181 352 ft 10 kts 346°
2026-05-08 20:03 49.01187 2.55164 354 ft 11 kts
2026-05-08 20:04 49.01255 2.55187 355 ft 10 kts 24°
2026-05-08 20:04 49.01337 2.55221 357 ft 13 kts 358°
2026-05-08 20:04 49.01437 2.55184 361 ft 15 kts 349°
2026-05-08 20:04 49.01547 2.55165 364 ft 17 kts 356°
2026-05-08 20:05 49.01675 2.55149 367 ft 19 kts 355°
2026-05-08 20:05 49.01791 2.55135 369 ft 15 kts 353°
2026-05-08 20:05 49.01854 2.55043 370 ft 15 kts 270°
2026-05-08 20:05 49.01846 2.54866 370 ft 18 kts 265°
2026-05-08 20:06 49.01834 2.54647 367 ft 23 kts 266°
2026-05-08 20:06 49.01822 2.54404 367 ft 19 kts 265°
2026-05-08 20:06 49.01810 2.54194 367 ft 20 kts 265°
2026-05-08 20:06 49.01799 2.53970 363 ft 21 kts 266°
2026-05-08 20:07 49.01786 2.53740 363 ft 22 kts 265°
2026-05-08 20:07 49.01774 2.53506 362 ft 22 kts 266°
2026-05-08 20:07 49.01761 2.53281 363 ft 20 kts 266°
2026-05-08 20:07 49.01751 2.53063 365 ft 20 kts 265°
2026-05-08 20:08 49.01739 2.52851 368 ft 18 kts 266°
2026-05-08 20:08 49.01730 2.52680 368 ft 16 kts 266°
2026-05-08 20:08 49.01722 2.52520 371 ft 13 kts 266°
2026-05-08 20:08 49.01715 2.52395 371 ft 8 kts 266°
2026-05-08 20:09 49.01710 2.52302 370 ft 10 kts 265°
2026-05-08 20:09 49.01706 2.52211 370 ft 7 kts 272°
2026-05-08 20:09 49.01707 2.52191 370 ft 1 kts 276°
2026-05-08 20:09 49.01720 2.52149 370 ft 6 kts 311°
2026-05-08 20:10 49.01774 2.52126 370 ft 10 kts
2026-05-08 20:10 49.01846 2.52130 370 ft 11 kts 357°
2026-05-08 20:10 49.01925 2.52120 372 ft 7 kts 355°
2026-05-08 20:10 49.01957 2.52114 373 ft 1 kts 354°
2026-05-08 20:11 49.01973 2.52112 373 ft 7 kts 355°
2026-05-08 20:11 49.02054 2.52104 373 ft 12 kts
2026-05-08 20:11 49.02114 2.52190 373 ft 14 kts 87°
2026-05-08 20:11 49.02114 2.52220 373 ft 0 kts 93°
2026-05-08 20:12 49.02114 2.52222 373 ft 1 kts 93°
2026-05-08 20:12 49.02113 2.52252 373 ft 0 kts 90°
2026-05-08 20:13 49.02113 2.52264 373 ft 0 kts 87°
2026-05-08 20:13 49.02119 2.52371 373 ft 39 kts 85°
2026-05-08 20:13 49.02161 2.53155 373 ft 107 kts 84°
2026-05-08 20:14 49.02237 2.54589 383 ft 161 kts 85°
2026-05-08 20:14 49.02262 2.56300 964 ft 164 kts 90°
2026-05-08 20:14 49.02210 2.57991 1655 ft 164 kts 91°
2026-05-08 20:14 49.02158 2.59826 2042 ft 181 kts 88°
2026-05-08 20:15 49.02142 2.61705 2701 ft 172 kts 89°
2026-05-08 20:15 49.02135 2.63441 3357 ft 162 kts 85°
2026-05-08 20:15 49.02181 2.65199 3688 ft 172 kts 82°
2026-05-08 20:15 49.02439 2.66979 4119 ft 171 kts 66°
2026-05-08 20:16 49.02933 2.68594 4555 ft 174 kts 62°
2026-05-08 20:16 49.03347 2.70429 4824 ft 190 kts 72°
2026-05-08 20:16 49.03624 2.72409 5228 ft 197 kts 74°
2026-05-08 20:16 49.04038 2.74460 5514 ft 208 kts 63°
2026-05-08 20:17 49.04810 2.76379 5755 ft 223 kts 46°
2026-05-08 20:17 49.05994 2.78036 6075 ft 238 kts 31°
2026-05-08 20:17 49.07515 2.79230 6411 ft 254 kts 15°
2026-05-08 20:17 49.09289 2.79600 6738 ft 269 kts 354°
2026-05-08 20:18 49.11073 2.79095 7870 ft 255 kts 341°
2026-05-08 20:18 49.12681 2.78065 8641 ft 256 kts 329°
2026-05-08 20:18 49.14190 2.76584 9240 ft 264 kts 324°
2026-05-08 20:18 49.15788 2.75099 9769 ft 278 kts 328°
2026-05-08 20:19 49.17656 2.73846 9963 ft 308 kts 341°
2026-05-08 20:19 49.19792 2.73255 10157 ft 314 kts 351°
2026-05-08 20:19 49.21943 2.73134 10006 ft 305 kts 355°